Tacoma Narrows, WA
on Sunday, December 23, 2012

Sunday
Previous Day Next Day
Daily Summary
 ActualAverageRecord
Temperature
Mean Temperature °F °F  
Max Temperature 43°F 43°F 53°F (2005)
Min Temperature 39°F 36°F 30°F (2008)
Degree Days
Heating Degree Days 24    
Moisture
Dew Point 36°F   
Average Humidity 84    
Maximum Humidity 93    
Minimum Humidity 71    
Precipitation
Precipitation 0.28 in in in ()
Wind
Wind Speed 5 mph   
Max Wind Speed 12 mph   
Max Gust Speed 16 mph   
Visibility 10 miles   
Events Rain   
Averages and records for this station are not official NWS values.
Key: T is trace of precipitation, MM is missing value
Source: NWS Daily Summary
Seasonal Weather Averages
Time(PST)TemperatureDew PointHumidity Pressure Visibility Wind DirectionWind SpeedGust SpeedPrecipitationEvents Conditions
12:53 AM 42.1°F 35.1°F 76% 29.76 in 10.0 miles South 5.8 mph - N/A   Overcast
1:53 AM 42.1°F 35.1°F 76% 29.75 in 10.0 miles South 4.6 mph - 0.01 in   Overcast
2:53 AM 43.0°F 34.0°F 71% 29.75 in 10.0 miles South 6.9 mph - N/A   Overcast
3:53 AM 43.0°F 34.0°F 71% 29.76 in 10.0 miles SSE 5.8 mph - N/A   Overcast
4:53 AM 43.0°F 34.0°F 71% 29.75 in 10.0 miles South 8.1 mph - N/A   Overcast
5:53 AM 43.0°F 34.0°F 71% 29.74 in 10.0 miles South 5.8 mph - N/A   Overcast
6:53 AM 42.1°F 34.0°F 73% 29.74 in 10.0 miles South 5.8 mph - N/A   Overcast
7:53 AM 43.0°F 35.1°F 74% 29.73 in 10.0 miles South 4.6 mph - 0.01 in Rain Light Rain
8:53 AM 41.0°F 36.0°F 82% 29.72 in 10.0 miles Calm Calm - 0.02 in   Mostly Cloudy
9:53 AM 41.0°F 37.0°F 86% 29.72 in 10.0 miles Calm Calm - 0.00 in Rain Light Rain
10:53 AM 42.1°F 37.0°F 82% 29.68 in 10.0 miles North 3.5 mph - 0.00 in   Mostly Cloudy
11:53 AM 43.0°F 37.9°F 82% 29.66 in 10.0 miles Calm Calm - N/A   Mostly Cloudy
12:53 PM 43.0°F 39.0°F 86% 29.65 in 10.0 miles North 5.8 mph - N/A   Overcast
1:53 PM 43.0°F 37.0°F 80% 29.64 in 10.0 miles Calm Calm - 0.01 in Rain Light Rain
2:53 PM 42.1°F 39.0°F 89% 29.63 in 9.0 miles NW 5.8 mph - 0.00 in Rain Light Rain
3:53 PM 41.0°F 39.0°F 93% 29.64 in 9.0 miles WNW 4.6 mph - 0.03 in Rain Light Rain
4:20 PM 41.0°F 39.2°F 93% 29.64 in 7.0 miles WNW 3.5 mph - 0.02 in Rain Light Rain
4:53 PM 41.0°F 39.0°F 93% 29.66 in 7.0 miles Calm Calm - 0.04 in Rain Light Rain
5:23 PM 39.2°F 37.4°F 93% 29.66 in 6.0 miles West 3.5 mph - 0.03 in Rain Light Rain
5:53 PM 39.9°F 37.0°F 89% 29.68 in 5.0 miles SW 3.5 mph - 0.09 in Rain Light Rain
6:53 PM 39.0°F 36.0°F 89% 29.70 in 10.0 miles SSW 5.8 mph - 0.07 in   Overcast
7:53 PM 39.0°F 36.0°F 89% 29.73 in 10.0 miles SSW 6.9 mph - 0.00 in   Overcast
8:27 PM 39.2°F 35.6°F 87% 29.73 in 10.0 miles South 8.1 mph - N/A   Overcast
8:53 PM 39.0°F 35.1°F 86% 29.75 in 10.0 miles South 6.9 mph - N/A   Overcast
9:53 PM 39.0°F 36.0°F 89% 29.77 in 10.0 miles SSW 6.9 mph - N/A   Overcast
10:06 PM 39.2°F 35.6°F 87% 29.77 in 10.0 miles South 6.9 mph - N/A   Overcast
10:21 PM 39.2°F 35.6°F 87% 29.77 in 10.0 miles SSW 5.8 mph - N/A   Overcast
10:33 PM 39.2°F 35.6°F 87% 29.78 in 10.0 miles SSW 5.8 mph - N/A   Overcast
10:41 PM 39.2°F 35.6°F 87% 29.79 in 10.0 miles SSW 8.1 mph - N/A   Overcast
10:53 PM 39.0°F 36.0°F 89% 29.80 in 10.0 miles South 11.5 mph 16.1 mph N/A   Overcast
11:10 PM 39.2°F 35.6°F 87% 29.80 in 10.0 miles SSW 8.1 mph - N/A   Overcast
11:53 PM 39.0°F 36.0°F 89% 29.83 in 10.0 miles South 11.5 mph - N/A   Overcast
Moon Phase
Dec. 23 Dec. 28 Jan. 04 Jan. 11 Jan. 18
Sunrise:07:55 AM (PST) Moon Rise:01:25 PM (PST)12/23
Sunset:04:24 PM (PST) Moon Set:03:34 AM (PST)12/23

Copyright © 2014 The Weather Underground, Inc.